Regional Weather Roundup
Issued by NWS Charleston, SC

Current Version | Previous Version | Graphics & Text | Print | Product List | Glossary On
Versions: 1 2 3 4 5 6 7 8 9 10 11 12 13 14 15 16 17 18 19 20 21 22 23 24 25 26 27 28 29 30 31 32 33 34 35 36 37 38 39 40 41 42 43 44 45 46 47 48 49 50
516
ASUS42 KCHS 292013
RWRCHS

REGIONAL WEATHER ROUNDUP
NATIONAL WEATHER SERVICE CHARLESTON SC
400 PM EDT FRI JUL 29 2016

NOTE: "FAIR" INDICATES FEW OR NO CLOUDS BELOW 12,000 FEET WITH NO
SIGNIFICANT WEATHER AND/OR OBSTRUCTIONS TO VISIBILITY.

NOT ALL STATIONS ARE QUALITY CONTROLLED. USE DATA WITH CAUTION...
ESPECIALLY DEWPOINT OBSERVATIONS.

SCZ027-030-031-034>040-042>050-292100-
...SOUTHEAST SOUTH CAROLINA...

CITY           SKY/WX    TMP DP  RH WIND       PRES   REMARKS
N CHARLESTON   MOSUNNY   98  68  37 W15G22    29.92F HX 103
WATERFRONT PRK   N/A     96  70  42 W9        29.93S HX 102
MOUNT PLEASANT FAIR      97  70  41 W10G17    29.93F HX 103
JOHNS ISLAND   FAIR      99  70  39 W10       29.93F HX 105
PINOPOLIS        N/A     93  70  46 W16       29.84F HX  99
MONCKS CORNER  FAIR      95  61  31 SW8G17    29.92F HX  95
SUMMERVILLE    NOT AVBL
BEAUFORT MCAS  MOSUNNY  100  67  33 W14G22    29.94F HX 105
BEAUFORT ARPT  FAIR      99  68  36 W14G20    29.94F HX 104
HILTON HEAD IS MOSUNNY  102  70  35 SW12G21   29.96F HX 110
WALTERBORO     PTCLDY    97  64  34 W10       29.94F HX  99
ALLENDALE      FAIR      97  68  38 VRB7G17   29.93F HX 101

...SOUTHERN MIDLANDS AND PEE DEE...

CITY           SKY/WX    TMP DP  RH WIND       PRES   REMARKS
GEORGETOWN     FAIR      95  70  43 W12G17    29.93S HX 101
KINGSTREE      FAIR      95  70  43 W9        29.91F HX 101
ORANGEBURG     SUNNY     98  66  34 W13G22    29.92F HX 101
BARNWELL       NOT AVBL
AIKEN          FAIR      95  68  41 SW14G20   29.97F HX  99
MANNING        FAIR      95  70  43 W9        29.91F HX 101
COLUMBIA       PTSUNNY   97  68  38 W12       29.90F HX 102
SUMTER         MOSUNNY   98  68  36 W8        29.88F HX 103
FLORENCE       MOSUNNY   95  71  45 W7        29.91F HX 102
MYRTLE BEACH   MOSUNNY   97  70  41 NW13      29.93S HX 103
N MYRTLE BEACH MOSUNNY   94  73  50 VRB6      29.91S HX 103

$$

GAZ063-065-086>088-099>101-113>116-118-119-134>141-150-292100-
...SOUTHEAST GEORGIA...

CITY           SKY/WX    TMP DP  RH WIND       PRES   REMARKS
SAVANNAH ARPT  MOSUNNY   99  68  36 W10G17    29.95F HX 104
HUNTER AAF     MOSUNNY   99  74  44 W14       29.93F HX 110
FORT STEWART   NOT AVBL
STATESBORO     SUNNY     98  71  42 W12G18    29.95F HX 106
SYLVANIA       NOT AVBL
CLAXTON        FAIR      98  67  37 SW8       29.95F HX 102

...CSRA...CENTRAL AND FAR SOUTHEAST GEORGIA...

CITY           SKY/WX    TMP DP  RH WIND       PRES   REMARKS
THOMSON        NOT AVBL
AUGUSTA-BUSH   MOSUNNY   98  66  34 W18       29.92F HX 101
AUGUSTA-DANIEL SUNNY     97  67  37 W9G17     29.95F HX 101
SWAINSBORO     MOCLDY    97  64  34 W10       29.96F HX  99
VIDALIA        MOSUNNY   99  63  30 W10G17    29.96F HX 100
EASTMAN        FAIR      98  43  15 NW12G17   29.99F HX  94
HAZLEHURST     FAIR     100  66  33 CALM      29.96F HX 104
ALMA           PTSUNNY   97  66  36 SW7       29.97F HX 100
WAYCROSS         N/A    100  71  39 SW10      29.97F HX 109
JESUP          FAIR     100  73  41 NW12G18   29.96F HX 111
BAXLEY         FAIR      99  70  39 SW7G16    29.97F HX 105
BRUNSWICK      MOSUNNY   99  70  39 SW12      29.97F HX 105
SAINT SIMONS   MOSUNNY   98  65  33 SW12      29.96F HX 101

$$

SCZ027-028-034-036>038-045-046-048>050-GAZ119-141-292100-
...LAKE AND SUPPLEMENTAL COASTAL OBSERVATIONS...

STATION/POSITION TIME  TEMP    WIND        PRES    WAVE   SWELL
                       AIR SEA DIR/SP/G            HT/PER HT/PER/DIR
                 (UTC) (F)     (DEG/KT/KT) (MB)    (FT/S) (FT/S/D)
WINYAH BAY       1845   94     280/  8     1012.0
LAKE MURRAY      1900   92     280/  9/ 11 1012.5F
ACE BASIN NERRS  NOT AVBL
FORT PULASKI     1900   95 88  250/  9/ 12 1015.1F
SAPELO ISLAND    1900   97     220/  8     1015.0F

$$

ANZ835-935-AMZ111-154-330-350-352-354-370-450-454-472-292100-
...C-MAN AND BUOY OBSERVATIONS...

STATION/POSITION TIME  TEMP    WIND        PRES    WAVE   SWELL
                       AIR SEA DIR/SP/G            HT/PER HT/PER/DIR
                 (UTC) (F)     (DEG/KT/KT) (MB)    (FT/S) (FT/S/D)
BUOY 41004       1950   86 86  210/ 17/ 19 1013.6F   3/ 6   2/160/ 8
BUOY 41008       1950   87 88  160/ 16/ 17 1014.8F   2/ 5
FOLLY BEACH CMAN 2000   88     200/ 16/ 19 1014.1F
CAPERS NEARSHORE 1908   86 85  210/ 17/ 23 1013.5F
FRIPP NEARSHORE  1908   89 88  200/ 12/ 14 1013.9F


STATION/POSITION TIME  TEMP    WIND        PRES    WAVE   SWELL
                       AIR SEA DIR/SP/G            HT/PER HT/PER/DIR
                 (UTC) (F)     (DEG/KT/KT) (MB)    (FT/S) (FT/S/D)
5E ST. MARYS GA  1901      87                N/A     1/ 4
FRYING PAN BUOY  1900   86 85  220/ 16/ 17 1013.4S
BUOY 41025       1950   87 85  230/ 17/ 21 1011.8R   4/ 6   2/290/16
CAPE LOOKOUT NC  1900   88     210/ 14/ 19 1012.0R
BUOY 41002       1950   85 85  240/ 10/ 12 1015.7F   4/ 6   3/270/ 6
BUOY 41010       1920   86 87  270/  8/ 10 1017.3F
ST AUGUSTINE FL  2000   85 87  110/ 12/ 13 1016.8F


$$




USA.gov is the U.S. government's official web portal to all federal, state and local government web resources and services.